Probability
5 5 5 4 5 8 12 14 14 12 10 10 11 10 7 3 1 1 1 1 0 0 0 0 0 0 0 0 0 0 0 0 0 0 0 0 0 0
5 5 5 5 6 8 10 13 16 15 11 10 11 11 8 3 1 0 1 1 1 0 0 0 0 0 0 0 0 0 0 0 0 0 0 0 0 0
4 5 6 7 8 9 10 12 15 15 11 10 11 10 6 4 1 1 1 1 1 0 0 0 0 0 0 0 0 0 0 0 0 0 0 0 0 0
3 5 8 10 11 12 12 13 13 12 9 9 9 8 5 3 2 2 2 2 1 0 0 0 0 0 0 0 0 0 0 0 0 0 0 0 0 0
5 8 11 13 15 16 15 14 12 10 9 9 9 8 6 3 3 4 4 3 1 0 0 0 0 0 0 0 0 0 0 0 0 0 0 0 0 0
8 10 12 13 15 16 15 14 12 11 11 12 11 9 7 5 5 5 5 4 2 2 2 1 1 0 0 0 0 0 0 0 0 0 0 0 0 0
8 11 12 12 12 11 11 10 10 10 12 14 13 11 10 8 6 5 4 5 6 6 6 4 2 1 0 0 0 0 0 0 0 0 0 0 0 0
9 12 12 10 9 7 6 6 6 7 10 13 14 13 12 10 7 5 6 8 9 9 9 7 5 2 1 0 0 0 0 0 0 0 0 0 0 0
12 14 13 11 9 7 6 5 4 3 5 9 12 12 12 10 8 7 8 9 9 9 9 8 7 5 3 1 0 0 0 0 0 0 0 0 0 0
13 14 14 11 9 8 9 8 6 3 3 5 7 8 8 7 6 5 6 7 7 8 8 8 7 5 4 2 1 0 0 0 0 0 0 0 0 0
11 11 12 10 8 7 9 9 7 4 2 2 2 3 3 3 3 4 6 6 6 7 7 7 6 4 4 4 2 0 0 0 0 0 0 0 0 0
9 9 8 7 5 5 7 7 6 5 4 2 1 0 0 0 1 3 5 6 6 6 7 6 5 3 3 4 4 2 1 0 0 0 0 0 0 0
8 8 7 5 2 2 4 5 4 4 5 3 1 0 0 0 1 2 4 4 4 5 6 6 5 3 3 4 4 3 2 0 0 0 0 0 0 0
8 8 7 4 1 0 1 2 1 2 4 2 1 0 0 1 1 2 3 4 4 5 6 7 6 4 3 3 3 2 1 0 0 0 0 0 0 0
9 9 6 2 0 0 0 0 0 1 2 2 1 0 1 2 2 3 3 4 5 5 6 6 6 5 4 4 3 2 1 0 0 0 0 0 0 0
10 9 6 3 2 2 2 1 1 2 3 3 2 2 2 3 3 3 3 4 5 6 6 6 6 6 6 5 4 3 1 1 0 0 0 0 0 0
10 9 7 6 6 5 5 4 3 4 5 5 4 3 3 3 3 3 3 3 4 5 6 6 6 6 6 6 5 4 3 2 1 0 0 0 0 0
9 8 7 7 7 7 6 5 4 4 5 6 4 3 3 3 3 3 3 3 4 5 6 6 6 6 6 6 6 5 4 3 2 1 0 0 0 0
7 7 7 7 7 7 6 5 4 4 4 6 5 4 3 3 3 3 3 3 4 5 6 6 6 6 6 6 6 4 4 4 3 1 0 0 0 0
7 7 7 8 8 7 7 7 6 4 5 6 6 4 3 3 3 3 3 3 4 5 6 6 6 6 6 6 6 5 4 4 3 2 1 0 0 0
8 7 7 7 7 7 8 8 7 7 7 8 7 6 4 3 3 3 3 3 3 4 4 5 6 6 6 6 6 6 4 3 2 2 1 0 0 0
9 8 7 7 7 8 9 9 9 9 9 9 9 8 6 5 4 4 4 4 4 4 4 5 6 6 6 6 6 6 4 2 1 1 0 0 0 0
10 9 9 8 8 9 10 10 11 10 9 9 9 9 8 6 5 4 4 4 4 4 5 6 6 6 6 6 6 6 4 2 1 0 0 0 0 0
Wind_Speed
2 2 3 2 2 2 2 3 2 2 1 3 2 2 2 3 4 3 4 7 6 5 4 4 4 4 4 4 4 4 4 4 4 4 3 3 2 1
2 2 2 2 2 2 3 3 2 2 1 1 2 3 3 3 5 4 5 8 7 6 5 5 4 4 4 4 5 5 5 5 5 5 4 3 2 2
2 2 1 2 2 1 1 2 1 1 2 1 2 4 3 3 4 3 3 3 5 7 7 6 6 5 5 5 5 5 5 5 5 4 4 4 3 3
1 1 1 1 1 1 1 1 0 1 2 3 2 3 3 3 3 3 3 3 4 8 8 7 7 6 6 6 6 5 5 5 4 4 4 3 3 3
1 1 1 1 1 1 1 1 1 1 2 3 3 2 2 3 3 3 3 2 3 6 7 7 7 7 6 6 6 5 4 4 4 4 4 4 3 3
1 1 1 1 1 1 1 1 1 1 2 3 3 3 3 3 3 3 3 2 1 2 4 5 7 6 6 6 5 5 5 4 4 4 3 3 3 4
0 1 2 3 5 3 1 0 1 1 2 2 2 3 3 3 3 3 3 3 2 1 2 3 4 3 4 5 5 5 5 5 5 4 4 4 4 4
1 1 2 3 4 4 4 3 2 1 1 2 2 2 2 2 2 2 3 3 2 1 1 2 2 2 2 3 7 6 5 5 5 5 5 5 4 4
1 1 1 3 3 3 3 3 3 3 1 1 1 1 2 2 2 3 2 1 1 3 1 1 1 1 2 6 9 7 6 5 5 5 4 4 4 3
2 2 2 2 2 1 2 3 4 4 2 1 1 1 1 1 2 1 2 3 3 2 1 1 1 1 1 4 9 7 5 5 4 4 3 2 2 1
3 3 2 3 3 1 3 4 3 3 5 6 5 5 5 4 1 2 3 3 3 3 2 1 2 1 2 3 6 8 6 5 4 3 2 1 1 3
3 3 6 4 3 2 2 3 3 2 3 5 5 5 4 4 2 1 1 2 2 2 3 2 2 2 2 3 3 5 5 6 6 5 5 3 3 4
2 2 4 4 3 2 1 1 2 1 3 4 4 4 3 3 2 1 1 1 1 1 2 3 3 3 2 2 2 2 3 3 5 5 6 5 4 4
1 2 4 4 3 2 2 2 1 2 2 2 2 2 2 2 2 2 1 1 2 1 1 2 2 2 3 3 2 2 2 2 2 2 2 5 6 5
3 5 4 3 3 3 3 2 3 2 2 2 2 2 1 2 2 2 2 2 1 1 2 3 3 3 4 3 2 2 2 2 2 2 2 2 2 2
3 5 5 3 2 3 4 3 2 1 1 1 1 1 1 2 2 1 1 1 2 2 3 2 2 3 3 3 3 2 2 2 2 2 2 2 3 3
2 3 3 3 3 3 2 2 2 2 2 1 1 2 2 2 2 2 2 2 2 2 2 3 3 3 3 3 3 3 2 2 2 2 3 4 3 3
3 3 2 2 2 2 2 2 2 1 1 1 1 1 2 2 2 2 3 3 3 2 2 2 3 3 4 3 3 4 3 3 2 2 4 4 3 2
3 2 2 2 1 1 2 2 2 1 1 2 2 2 2 2 2 2 2 3 3 3 3 2 3 4 5 4 3 4 4 3 3 3 4 4 4 3
4 3 2 2 2 2 2 2 2 2 2 2 2 2 3 3 3 3 3 3 3 3 3 3 3 3 5 5 3 3 5 4 4 4 4 4 3 1
3 3 3 3 3 2 2 2 2 2 2 2 2 3 3 3 3 3 3 3 5 4 4 3 2 4 5 4 5 3 2 4 3 4 5 5 4 4
4 3 3 3 3 3 3 3 3 3 3 4 3 3 3 3 4 4 4 4 4 4 5 3 2 3 4 5 5 4 3 3 5 6 5 4 5 5
3 3 3 4 4 4 4 4 5 4 3 3 3 3 3 3 4 4 4 5 4 4 4 4 3 4 5 5 6 5 4 4 4 4 4 6 8 8
Wind_Direction
263 240 249 241 234 238 237 239 235 225 180 156 154 140 140 106 108 116 101 98 98 100 107 112 116 116 117 117 124 128 125 118 116 118 122 132 140 155
278 296 276 269 241 240 248 248 245 236 210 130 133 130 118 120 109 108 96 101 94 94 95 101 110 116 116 117 117 119 122 120 116 114 116 116 117 123
255 238 242 289 283 269 262 253 238 214 171 135 119 111 113 113 113 114 113 106 101 94 92 90 92 102 111 113 112 114 115 113 115 119 117 113 107 109
270 269 266 256 243 283 285 275 256 192 177 166 149 133 126 133 125 130 117 108 98 97 93 90 90 94 98 101 103 104 106 110 111 108 109 110 111 109
279 271 271 259 239 224 247 244 208 171 164 171 168 137 143 143 138 126 106 93 105 116 116 106 97 95 94 96 97 100 103 104 102 101 99 98 98 94
331 329 316 305 284 247 202 201 204 173 163 179 167 158 153 159 167 158 144 140 125 122 102 107 110 110 105 102 103 104 103 102 100 97 93 90 86 80
54 52 52 56 39 22 6 342 195 195 181 178 173 163 157 169 184 182 156 147 137 143 141 141 143 138 129 124 115 106 102 99 96 95 94 90 87 84
75 89 102 95 86 75 58 41 14 234 201 183 171 168 174 176 172 192 177 185 164 157 181 135 127 115 110 101 95 102 103 102 101 100 98 98 95 94
56 59 81 90 105 107 115 121 80 51 22 259 153 179 174 175 189 195 188 202 127 131 176 145 136 127 125 96 105 109 110 108 107 105 103 105 101 99
73 73 83 88 74 92 119 104 89 72 60 103 106 98 109 120 192 185 145 139 132 129 174 199 160 164 134 122 123 123 122 123 123 121 120 121 123 134
86 69 70 86 41 27 129 121 110 107 84 74 71 83 77 73 58 178 172 181 167 158 177 211 172 172 182 160 138 146 152 154 153 153 157 177 218 233
116 103 72 57 42 31 135 136 131 126 125 121 114 121 119 117 120 241 214 197 177 167 155 199 191 193 198 177 165 164 172 171 180 184 187 201 242 256
126 108 88 78 64 45 35 107 113 148 142 136 131 128 127 127 130 103 355 308 279 173 147 197 217 223 231 196 183 188 196 186 187 189 193 194 216 261
110 95 95 101 83 60 81 93 155 211 151 137 134 131 127 121 108 96 73 28 358 6 160 238 242 242 242 225 210 191 206 210 214 225 212 178 199 220
83 79 99 131 149 126 127 177 201 180 151 154 150 137 129 118 128 142 146 147 153 157 167 229 244 239 253 255 250 229 226 224 223 233 232 215 223 228
139 140 154 165 168 122 151 177 186 143 192 172 156 141 141 158 181 192 187 185 176 158 160 195 241 250 251 256 263 259 250 244 235 249 250 242 236 234
181 183 169 167 165 158 157 155 166 167 180 196 184 169 173 184 186 193 223 225 224 206 188 187 195 219 254 271 261 263 265 260 242 235 250 246 236 232
223 189 184 187 186 179 179 174 176 181 202 212 203 202 208 212 208 212 224 237 239 233 226 218 212 212 218 212 253 259 257 259 256 237 255 259 252 241
215 206 200 200 197 192 200 198 192 181 219 222 215 225 228 225 225 228 234 240 242 245 245 235 232 243 253 249 205 232 266 273 262 245 252 265 271 267
220 215 209 206 206 209 212 207 203 201 208 219 216 225 236 237 233 237 239 250 252 249 247 246 253 264 273 283 277 226 218 261 272 270 268 271 280 276
210 212 215 212 212 211 216 218 217 221 224 231 229 236 242 246 248 248 245 239 252 251 253 250 258 255 269 274 266 252 213 206 256 274 281 282 282 270
216 210 210 217 215 214 215 217 218 217 221 233 229 233 238 244 244 250 255 249 246 254 261 264 233 244 257 265 270 269 257 232 217 222 240 256 287 286
218 222 223 219 214 215 218 222 228 229 233 244 244 242 242 245 252 255 261 265 266 267 268 261 249 250 258 261 267 269 261 257 253 242 228 209 223 242